Butler, PA

10:18 PM EST on December 05, 2019 (GMT -0500)
Butler County-Scholter

Weather History for KBTP - June, 2019

Change the Weather History Date:

Thursday, June 13, 2019

  Actual Average Record
Temperature  
Mean Temperature 60 °F -  
Max Temperature 68 °F 73 °F 91 °F (1969)
Min Temperature 52 °F 55 °F 37 °F (1979)
Degree Days  
Heating Degree Days 5    
Growing Degree Days 10 (Base 50)    
Moisture  
Dew Point 54 °F    
Average Humidity 82    
Maximum Humidity 96    
Minimum Humidity 63    
Precipitation  
Precipitation 0.34 in - - ()
Sea Level Pressure  
Sea Level Pressure 29.75 in    
Wind  
Wind Speed 9 mph (SSW)    
Max Wind Speed 20 mph    
Max Gust Speed 30 mph    
Visibility 10 miles    
Events Rain , Thunderstorm    
Averages and records for this station are not official NWS values.
T = Trace of Precipitation, MM = Missing Value Source: NWS Daily Summary

Daily Weather History Graph

Daily Weather History Graph

Search for Another Location

Airport or City:

Astronomy

Jun. 13, 2019 Rise Set
Actual Time 5:47 AM EDT 8:52 PM EDT
Civil Twilight 5:14 AM EDT 9:25 PM EDT
Nautical Twilight 4:32 AM EDT 10:07 PM EDT
Astronomical Twilight 3:41 AM EDT 10:58 PM EDT
Moon 5:03 PM EDT (6/13) 3:34 AM EDT (6/13)
Length of Visible Light 16h 10m
Length of Day
15h 04m
Waxing Gibbous, 85% of the Moon is Illuminated
Jun 13
Waxing Gibbous
Jun 17
Full
Jun 25
Last Quarter
Jul 2
New
Jul 9
First Quarter

Hourly Weather History & Observations

Time (EDT) Temp. Dew Point Humidity Pressure Visibility Wind Dir Wind Speed Gust Speed Precip Events Conditions
12:56 AM 64.0 °F 51.1 °F 63% 29.88 in 10.0 mi SE 8.1 mph - N/A   Overcast
1:56 AM 63.0 °F 51.1 °F 65% 29.85 in 10.0 mi SSE 4.6 mph - N/A   Overcast
2:56 AM 62.1 °F 52.0 °F 70% 29.81 in 10.0 mi ESE 8.1 mph - N/A   Overcast
3:56 AM 61.0 °F 53.1 °F 75% 29.79 in 10.0 mi ESE 6.9 mph - 0.00 in   Overcast
4:56 AM 61.0 °F 53.1 °F 75% 29.77 in 10.0 mi SSE 3.5 mph - 0.00 in Rain Light Rain
5:56 AM 59.0 °F 53.1 °F 81% 29.79 in 10.0 mi South 4.6 mph - 0.00 in Rain Light Rain
6:56 AM 57.0 °F 55.0 °F 93% 29.77 in 6.0 mi ESE 6.9 mph - 0.03 in Rain Rain
7:56 AM 57.0 °F 55.0 °F 93% 29.77 in 10.0 mi SE 5.8 mph - 0.02 in   Overcast
8:56 AM 57.0 °F 55.9 °F 96% 29.77 in 10.0 mi South 5.8 mph - 0.01 in   Overcast
9:07 AM 57.2 °F 55.4 °F 94% 29.76 in 10.0 mi SSE 5.8 mph - N/A   Overcast
9:56 AM 59.0 °F 57.0 °F 93% 29.76 in 10.0 mi South 8.1 mph - N/A   Overcast
10:31 AM 60.8 °F 57.2 °F 88% 29.74 in 10.0 mi SSW 5.8 mph - N/A   Overcast
10:56 AM 60.1 °F 57.9 °F 93% 29.74 in 10.0 mi South 6.9 mph - N/A   Overcast
11:42 AM 62.6 °F 57.2 °F 82% 29.72 in 10.0 mi SSW 8.1 mph - N/A   Overcast
11:54 AM 62.6 °F 57.2 °F 82% 29.72 in 10.0 mi South 8.1 mph - N/A   Overcast
11:56 AM 63.0 °F 57.9 °F 84% 29.72 in 10.0 mi South 8.1 mph - N/A   Overcast
12:16 PM 64.4 °F 57.2 °F 77% 29.71 in 10.0 mi South 13.8 mph - N/A   Overcast
12:32 PM 64.4 °F 57.2 °F 77% 29.71 in 10.0 mi SW 8.1 mph 17.3 mph N/A   Overcast
12:56 PM 64.0 °F 57.9 °F 80% 29.70 in 10.0 mi SW 6.9 mph - 0.00 in Rain Light Rain
1:10 PM 66.2 °F 57.2 °F 73% 29.69 in 10.0 mi SSW 11.5 mph 17.3 mph 0.00 in Thunderstorm Overcast
1:32 PM 66.2 °F 55.4 °F 68% 29.69 in 10.0 mi SW 13.8 mph - 0.00 in   Overcast
1:36 PM 64.4 °F 55.4 °F 73% 29.69 in 9.0 mi WSW 17.3 mph - 0.00 in Rain , Thunderstorm Light Rain
1:56 PM 61.0 °F 57.0 °F 87% 29.70 in 10.0 mi WSW 4.6 mph - 0.00 in   Overcast
2:04 PM 62.6 °F 57.2 °F 82% 29.69 in 10.0 mi Calm Calm - N/A Thunderstorm Overcast
2:34 PM 57.2 °F 53.6 °F 88% 29.70 in 10.0 mi West 5.8 mph - 0.01 in Rain , Thunderstorm Light Rain
2:44 PM 57.2 °F 53.6 °F 88% 29.70 in 8.0 mi WSW 5.8 mph - 0.05 in Rain , Thunderstorm Heavy Rain
2:56 PM 55.9 °F 54.0 °F 93% 29.72 in 8.0 mi WSW 9.2 mph - 0.09 in Rain , Thunderstorm Thunderstorms and Rain
3:09 PM 55.4 °F 53.6 °F 94% 29.71 in 10.0 mi West 11.5 mph 17.3 mph 0.05 in Rain , Thunderstorm Heavy Rain
3:56 PM 57.0 °F 55.0 °F 93% 29.74 in 9.0 mi SW 9.2 mph - 0.10 in Rain Rain
4:56 PM 57.9 °F 55.9 °F 93% 29.74 in 10.0 mi SW 12.7 mph 18.4 mph 0.07 in Rain Light Rain
5:12 PM 59.0 °F 55.4 °F 88% 29.73 in 10.0 mi WSW 13.8 mph 21.9 mph 0.00 in   Overcast
5:47 PM 60.8 °F 55.4 °F 82% 29.74 in 10.0 mi WSW 16.1 mph 23.0 mph 0.00 in   Overcast
5:56 PM 59.0 °F 55.0 °F 87% 29.76 in 10.0 mi WSW 15.0 mph 23.0 mph 0.00 in   Overcast
6:26 PM 60.8 °F 51.8 °F 72% 29.76 in 10.0 mi WSW 12.7 mph 25.3 mph N/A   Overcast
6:36 PM 59.0 °F 51.8 °F 77% 29.76 in 10.0 mi SW 18.4 mph 25.3 mph N/A   Overcast
6:56 PM 57.9 °F 50.0 °F 75% 29.78 in 10.0 mi WSW 18.4 mph 29.9 mph N/A   Overcast
7:45 PM 57.2 °F 50.0 °F 77% 29.78 in 10.0 mi SW 11.5 mph - N/A   Overcast
7:56 PM 57.0 °F 50.0 °F 77% 29.79 in 10.0 mi SW 9.2 mph - N/A   Overcast
8:47 PM 55.4 °F 48.2 °F 77% 29.78 in 10.0 mi SW 11.5 mph - 0.00 in   Overcast
8:56 PM 55.9 °F 48.0 °F 75% 29.80 in 10.0 mi SW 11.5 mph - 0.00 in   Overcast
9:56 PM 55.9 °F 48.0 °F 75% 29.81 in 10.0 mi SW 15.0 mph 23.0 mph N/A   Overcast
10:32 PM 55.4 °F 46.4 °F 72% 29.79 in 10.0 mi SW 19.6 mph 26.5 mph N/A   Overcast
10:39 PM 55.4 °F 46.4 °F 72% 29.80 in 10.0 mi SW 18.4 mph 26.5 mph N/A   Overcast
10:56 PM 54.0 °F 48.0 °F 80% 29.82 in 8.0 mi WSW 16.1 mph 27.6 mph 0.00 in Rain Light Rain
11:56 PM 52.0 °F 50.0 °F 93% 29.82 in 10.0 mi SW 11.5 mph 20.7 mph 0.02 in   Overcast